Regional Weather Roundup
Issued by NWS

Home | Current Version | Previous Version | Text Only | Print | Product List | Glossary Off
Versions: 1 2 3 4 5 6 7 8 9 10 11 12 13 14 15 16 17 18 19 20 21 22 23 24 25 26 27 28 29 30 31 32 33 34 35 36 37 38 39 40 41 42 43 44 45 46 47 48 49 50

000
ASUS43 KOAX 201402
RWRNE

WEATHER ROUNDUP FOR NEBRASKA
NATIONAL WEATHER SERVICE OMAHA NE
800 AM CST SAT DEC 20 2014

NOTES: SATELLITE DATA IS BEING USED TO AUGMENT CLOUD COVER ABOVE
       12000 FEET.
       "FAIR" INDICATES FEW OR NO CLOUDS BELOW 12,000 FEET WITH NO
       SIGNIFICANT WEATHER AND/OR OBSTRUCTIONS TO VISIBILITY.

  * THESE STATIONS DO NOT REPORT WEATHER SUCH AS RAIN...SNOW OR FOG.

NEZ001>004-019>022-054>056-201500-
NEBRASKA PANHANDLE

CITY           SKY/WX    TMP DP  RH WIND       PRES   REMARKS
SCOTTSBLUFF    MOCLDY    19  15  84 CALM      29.97R
ALLIANCE       CLEAR     11   8  88 W5        29.95S WCI   3
CHADRON        CLOUDY    22  17  81 SW9       29.95R WCI  12
SIDNEY         PTCLDY    22  16  78 W9        29.99R WCI  12
$$

NEZ057>060-069>072-079>082-201500-
SOUTHWEST NEBRASKA

CITY           SKY/WX    TMP DP  RH WIND       PRES   REMARKS
NORTH PLATTE   CLEAR     15  12  88 NW5       30.01S WCI   8
IMPERIAL       PTCLDY    20  16  84 W3        30.01R
MCCOOK         CLEAR     22  20  92 W5        30.04R WCI  16
$$

NEZ005>010-023>029-035>040-094-201500-
NORTH CENTRAL NEBRASKA

CITY           SKY/WX    TMP DP  RH WIND       PRES   REMARKS
VALENTINE      CLEAR     13  10  88 SW8       29.97R WCI   2
BROKEN BOW     CLEAR     18  14  84 CALM      30.00S
$$

NEZ041-046>049-061>064-073>077-083>087-201500-
SOUTH CENTRAL NEBRASKA

CITY           SKY/WX    TMP DP  RH WIND       PRES   REMARKS
GRAND ISLAND   FOG       29  28  96 S5        30.06S VSB 1/4 WCI  24
HASTINGS       HAZE      28  23  81 W3        30.05R VSB 1/4
KEARNEY *      PTCLDY    18  12  79 CALM      30.05S
$$

NEZ011>018-030>034-042>045-201500-
NORTHEAST NEBRASKA

CITY           SKY/WX    TMP DP  RH WIND       PRES   REMARKS
NORFOLK        CLOUDY    32  30  92 S5        30.06S FOG     WCI  27
COLUMBUS *     CLOUDY    32  27  80 S7        30.09R WCI  26
TEKAMAH        CLOUDY    32  31  96 SE9       30.12R FOG     WCI  24
$$

NEZ050>053-065>068-078-088>093-201500-
SOUTHEAST NEBRASKA

CITY           SKY/WX    TMP DP  RH WIND       PRES   REMARKS
LINCOLN        CLOUDY    32  31  96 S6        30.11R FOG     WCI  26
OMAHA EPPLEY   CLOUDY    32  32 100 S9        30.13R FOG     WCI  24
FALLS CITY     CLOUDY    33  30  88 S6        30.13R WCI  28
$$

NEZ044-045-051>053-067-201500-
OMAHA AREA

CITY           SKY/WX    TMP DP  RH WIND       PRES   REMARKS
OMAHA EPPLEY   CLOUDY    32  32 100 S9        30.13R FOG     WCI  24
OFFUTT AFB     CLOUDY    32  31  96 SE7       30.11S FOG     WCI  26
$$



USA.gov is the U.S. government's official web portal to all federal, state and local government web resources and services.